GCBZE EGCB-EGCM

Flight info

Callsign GCBZE
Flight time 0h 25m
Altitude 2000
Route VFR
Aircraft R44/L-VGD/A

Departure

Time 2026-05-04 20:51
Airport Manchester Barton Aerodrome (EGCB)

Arrival

Time 2026-05-04 21:16
Airport Leeds East Airport (EGCM)
Time Latitude Longitude Altitude Speed Heading
2026-05-04 20:45 53.46973 -2.38875 75 ft 0 kts 178°
2026-05-04 20:45 53.46972 -2.38875 75 ft 0 kts 178°
2026-05-04 20:48 53.46972 -2.38877 84 ft 2 kts 15°
2026-05-04 20:49 53.46980 -2.38882 80 ft 1 kts 263°
2026-05-04 20:49 53.47011 -2.38888 78 ft 6 kts 300°
2026-05-04 20:49 53.47028 -2.39002 74 ft 4 kts 347°
2026-05-04 20:49 53.47297 -2.39023 98 ft 68 kts 355°
2026-05-04 20:50 53.47781 -2.38931 281 ft 77 kts 11°
2026-05-04 20:50 53.48323 -2.38605 401 ft 79 kts 15°
2026-05-04 20:50 53.48880 -2.38316 470 ft 94 kts
2026-05-04 20:50 53.49535 -2.38047 563 ft 95 kts
2026-05-04 20:51 53.50157 -2.37634 571 ft 108 kts 36°
2026-05-04 20:51 53.50539 -2.36532 533 ft 110 kts 60°
2026-05-04 20:51 53.50841 -2.35494 767 ft 94 kts 57°
2026-05-04 20:51 53.51132 -2.34465 829 ft 93 kts 47°
2026-05-04 20:52 53.51522 -2.33437 693 ft 115 kts 58°
2026-05-04 20:52 53.51882 -2.32201 703 ft 108 kts 57°
2026-05-04 20:52 53.52243 -2.31086 729 ft 111 kts 50°
2026-05-04 20:52 53.52626 -2.30002 850 ft 105 kts 54°
2026-05-04 20:53 53.52983 -2.28982 999 ft 94 kts 53°
2026-05-04 20:53 53.53254 -2.28069 1271 ft 79 kts 53°
2026-05-04 20:53 53.53542 -2.27281 1363 ft 92 kts 48°
2026-05-04 20:53 53.53911 -2.26334 1295 ft 105 kts 56°
2026-05-04 20:54 53.54193 -2.25220 1353 ft 102 kts 68°
2026-05-04 20:54 53.54352 -2.23970 1212 ft 118 kts 70°
2026-05-04 20:54 53.54659 -2.23232 1067 ft 74 kts 105°
2026-05-04 20:54 53.54835 -2.22510 1185 ft 74 kts 53°
2026-05-04 20:55 53.55113 -2.21627 1176 ft 93 kts 53°
2026-05-04 20:55 53.55471 -2.20712 1231 ft 97 kts 43°
2026-05-04 20:55 53.55854 -2.19693 1197 ft 103 kts 54°
2026-05-04 20:55 53.56117 -2.18633 1367 ft 95 kts 61°
2026-05-04 20:56 53.56340 -2.17501 1303 ft 109 kts 66°
2026-05-04 20:56 53.56639 -2.16370 1338 ft 105 kts 50°
2026-05-04 20:56 53.57023 -2.15260 1238 ft 114 kts 51°
2026-05-04 20:56 53.57364 -2.14056 1282 ft 106 kts 61°
2026-05-04 20:57 53.57603 -2.12925 1318 ft 112 kts 65°
2026-05-04 20:57 53.57831 -2.11771 1517 ft 83 kts 59°
2026-05-04 20:57 53.58029 -2.10909 1701 ft 86 kts 61°
2026-05-04 20:57 53.58268 -2.09889 1691 ft 102 kts 59°
2026-05-04 20:58 53.58556 -2.08755 1690 ft 106 kts 55°
2026-05-04 20:58 53.58866 -2.07604 1677 ft 108 kts 57°
2026-05-04 20:58 53.59186 -2.06503 1782 ft 100 kts 56°
2026-05-04 20:58 53.59477 -2.05457 1894 ft 101 kts 64°
2026-05-04 20:59 53.59636 -2.04684 1845 ft 108 kts 66°
2026-05-04 20:59 53.59825 -2.03441 1835 ft 111 kts 71°
2026-05-04 20:59 53.60044 -2.02189 1861 ft 107 kts 63°
2026-05-04 20:59 53.60303 -2.01066 1993 ft 104 kts 60°
2026-05-04 21:00 53.60615 -1.99972 2061 ft 104 kts 54°
2026-05-04 21:00 53.61061 -1.98429 1975 ft 117 kts 59°
2026-05-04 21:00 53.61271 -1.97563 1978 ft 119 kts 60°
2026-05-04 21:00 53.61586 -1.96256 1950 ft 121 kts 62°
2026-05-04 21:01 53.61870 -1.94923 1984 ft 119 kts 63°
2026-05-04 21:01 53.62169 -1.93702 2095 ft 111 kts 62°
2026-05-04 21:01 53.62430 -1.92431 2065 ft 119 kts 67°
2026-05-04 21:01 53.62601 -1.91066 2056 ft 123 kts 71°
2026-05-04 21:02 53.62870 -1.89674 1984 ft 127 kts 62°
2026-05-04 21:02 53.63228 -1.88333 1993 ft 123 kts 54°
2026-05-04 21:02 53.63610 -1.87116 2057 ft 111 kts 57°
2026-05-04 21:02 53.63981 -1.85948 2046 ft 112 kts 51°
2026-05-04 21:03 53.64381 -1.84889 2128 ft 106 kts 50°
2026-05-04 21:03 53.64818 -1.83806 1968 ft 120 kts 53°
2026-05-04 21:03 53.65238 -1.82522 1811 ft 125 kts 56°
2026-05-04 21:03 53.65577 -1.81221 1909 ft 111 kts 66°
2026-05-04 21:04 53.65723 -1.79989 1900 ft 112 kts 73°
2026-05-04 21:04 53.65860 -1.78639 1818 ft 116 kts 76°
2026-05-04 21:04 53.65865 -1.77250 1711 ft 118 kts 83°
2026-05-04 21:04 53.66066 -1.76075 1828 ft 108 kts 59°
2026-05-04 21:05 53.66496 -1.75041 1841 ft 102 kts 36°
2026-05-04 21:05 53.67027 -1.74086 1581 ft 126 kts 41°
2026-05-04 21:05 53.67486 -1.72920 1707 ft 100 kts 58°
2026-05-04 21:05 53.67715 -1.72019 2056 ft 84 kts 60°
2026-05-04 21:06 53.68001 -1.71312 2309 ft 65 kts 27°
2026-05-04 21:06 53.68405 -1.70587 2181 ft 102 kts 53°
2026-05-04 21:06 53.68691 -1.69443 2178 ft 109 kts 59°
2026-05-04 21:06 53.68990 -1.68187 2043 ft 121 kts 62°
2026-05-04 21:07 53.69305 -1.66844 2017 ft 124 kts 60°
2026-05-04 21:07 53.69649 -1.65506 2022 ft 123 kts 59°
2026-05-04 21:07 53.70046 -1.64222 1977 ft 124 kts 50°
2026-05-04 21:07 53.70494 -1.62986 1939 ft 125 kts 57°
2026-05-04 21:08 53.70816 -1.61643 1979 ft 118 kts 63°
2026-05-04 21:08 53.71110 -1.60330 1925 ft 118 kts 67°
2026-05-04 21:08 53.71395 -1.59059 1920 ft 114 kts 62°
2026-05-04 21:08 53.71710 -1.57885 1949 ft 113 kts 67°
2026-05-04 21:09 53.71869 -1.56508 1832 ft 120 kts 65°
2026-05-04 21:09 53.72206 -1.55234 1843 ft 115 kts 59°
2026-05-04 21:09 53.72523 -1.53986 1841 ft 115 kts 62°
2026-05-04 21:09 53.72805 -1.52817 2010 ft 101 kts 65°
2026-05-04 21:10 53.73073 -1.51667 2007 ft 107 kts 61°
2026-05-04 21:10 53.73359 -1.50433 1948 ft 114 kts 62°
2026-05-04 21:10 53.73725 -1.49223 1952 ft 115 kts 54°
2026-05-04 21:10 53.74071 -1.47992 1974 ft 121 kts 60°
2026-05-04 21:11 53.74420 -1.46683 1981 ft 121 kts 60°
2026-05-04 21:11 53.74787 -1.45394 1924 ft 127 kts 58°
2026-05-04 21:11 53.75209 -1.44079 1896 ft 128 kts 56°
2026-05-04 21:11 53.75641 -1.42788 1949 ft 120 kts 55°
2026-05-04 21:12 53.76007 -1.41590 2048 ft 117 kts 58°
2026-05-04 21:12 53.76438 -1.40382 1972 ft 123 kts 51°
2026-05-04 21:12 53.76918 -1.39156 1890 ft 123 kts 53°
2026-05-04 21:12 53.77312 -1.37801 1567 ft 142 kts 57°
2026-05-04 21:13 53.77724 -1.36426 1736 ft 123 kts 58°
2026-05-04 21:13 53.78142 -1.35086 1692 ft 130 kts 58°
2026-05-04 21:13 53.78560 -1.33735 1728 ft 129 kts 54°
2026-05-04 21:13 53.79009 -1.32468 1811 ft 127 kts 52°
2026-05-04 21:14 53.79575 -1.31264 1754 ft 128 kts 49°
2026-05-04 21:14 53.79934 -1.29864 1671 ft 128 kts 63°
2026-05-04 21:14 53.80266 -1.28455 1610 ft 126 kts 64°
2026-05-04 21:14 53.80582 -1.27051 1462 ft 133 kts 62°
2026-05-04 21:15 53.80985 -1.25641 1346 ft 133 kts 59°
2026-05-04 21:15 53.81418 -1.24340 1168 ft 120 kts 51°
2026-05-04 21:15 53.81856 -1.23219 786 ft 102 kts 50°
2026-05-04 21:15 53.82235 -1.22374 556 ft 83 kts 56°
2026-05-04 21:16 53.82572 -1.21628 310 ft 71 kts 55°
2026-05-04 21:16 53.82852 -1.20981 92 ft 73 kts 53°
2026-05-04 21:16 53.83121 -1.20357 41 ft 57 kts 55°
2026-05-04 21:16 53.83336 -1.19882 45 ft 39 kts
2026-05-04 21:17 53.83465 -1.19821 39 ft 5 kts 315°
2026-05-04 21:17 53.83469 -1.19833 32 ft 0 kts 309°